owner,sensor,date,latitude,longitude,vertical_datum,sea_water_practical_salinity,qcFlag 
ENP,ioos.station.NOAA.NDBC:LMDF1:1,2019-10-01T00:00:00Z,25.1760,-80.6330,1.5,27.73,11111222 
ENP,ioos.station.NOAA.NDBC:LMDF1:1,2019-10-01T02:00:00Z,25.1760,-80.6330,1.5,27.73,11111222 
ENP,ioos.station.NOAA.NDBC:LMDF1:1,2019-10-01T04:00:00Z,25.1760,-80.6330,1.5,27.01,11111222 
ENP,ioos.station.NOAA.NDBC:LMDF1:1,2019-10-01T05:00:00Z,25.1760,-80.6330,1.5,28.29,11111222 
ENP,ioos.station.NOAA.NDBC:LMDF1:1,2019-10-01T06:00:00Z,25.1760,-80.6330,1.5,29.23,11111222 
ENP,ioos.station.NOAA.NDBC:LMDF1:1,2019-10-01T07:00:00Z,25.1760,-80.6330,1.5,29.55,11111222 
ENP,ioos.station.NOAA.NDBC:LMDF1:1,2019-10-01T08:00:00Z,25.1760,-80.6330,1.5,29.07,11111222 
ENP,ioos.station.NOAA.NDBC:LMDF1:1,2019-10-01T09:00:00Z,25.1760,-80.6330,1.5,29.23,11111222 
ENP,ioos.station.NOAA.NDBC:LMDF1:1,2019-10-01T10:00:00Z,25.1760,-80.6330,1.5,29.22,11111222 
ENP,ioos.station.NOAA.NDBC:LMDF1:1,2019-10-01T11:00:00Z,25.1760,-80.6330,1.5,29.19,11111222 
ENP,ioos.station.NOAA.NDBC:LMDF1:1,2019-10-01T12:00:00Z,25.1760,-80.6330,1.5,29.13,11111222 
ENP,ioos.station.NOAA.NDBC:LMDF1:1,2019-10-01T13:00:00Z,25.1760,-80.6330,1.5,27.62,11111222 
ENP,ioos.station.NOAA.NDBC:LMDF1:1,2019-10-01T14:00:00Z,25.1760,-80.6330,1.5,29.28,11111222 
ENP,ioos.station.NOAA.NDBC:LMDF1:1,2019-10-01T16:00:00Z,25.1760,-80.6330,1.5,27.71,11111222 
ENP,ioos.station.NOAA.NDBC:LMDF1:1,2019-10-01T17:00:00Z,25.1760,-80.6330,1.5,28.99,11111222 
ENP,ioos.station.NOAA.NDBC:LMDF1:1,2019-10-01T18:00:00Z,25.1760,-80.6330,1.5,28.8,11111222 
ENP,ioos.station.NOAA.NDBC:LMDF1:1,2019-10-01T19:00:00Z,25.1760,-80.6330,1.5,28.82,11111222 
ENP,ioos.station.NOAA.NDBC:LMDF1:1,2019-10-01T20:00:00Z,25.1760,-80.6330,1.5,28.77,11111222 
ENP,ioos.station.NOAA.NDBC:LMDF1:1,2019-10-01T21:00:00Z,25.1760,-80.6330,1.5,28.76,11111222 
ENP,ioos.station.NOAA.NDBC:LMDF1:1,2019-10-01T22:00:00Z,25.1760,-80.6330,1.5,28.65,11111222 
ENP,ioos.station.NOAA.NDBC:LMDF1:1,2019-10-01T23:00:00Z,25.1760,-80.6330,1.5,28.24,11111222 
ENP,ioos.station.NOAA.NDBC:LMDF1:1,2019-10-02T00:00:00Z,25.1760,-80.6330,1.5,27.03,11111222 
ENP,ioos.station.NOAA.NDBC:LMDF1:1,2019-10-02T02:00:00Z,25.1760,-80.6330,1.5,28.51,11111222 
ENP,ioos.station.NOAA.NDBC:LMDF1:1,2019-10-02T04:00:00Z,25.1760,-80.6330,1.5,29.46,11111222 
ENP,ioos.station.NOAA.NDBC:LMDF1:1,2019-10-02T05:00:00Z,25.1760,-80.6330,1.5,29.61,11111222 
ENP,ioos.station.NOAA.NDBC:LMDF1:1,2019-10-02T06:00:00Z,25.1760,-80.6330,1.5,29.59,11111222 
ENP,ioos.station.NOAA.NDBC:LMDF1:1,2019-10-02T07:00:00Z,25.1760,-80.6330,1.5,29.77,11111222 
ENP,ioos.station.NOAA.NDBC:LMDF1:1,2019-10-02T08:00:00Z,25.1760,-80.6330,1.5,29.87,11111222 
ENP,ioos.station.NOAA.NDBC:LMDF1:1,2019-10-02T09:00:00Z,25.1760,-80.6330,1.5,30.13,11111222 
ENP,ioos.station.NOAA.NDBC:LMDF1:1,2019-10-02T10:00:00Z,25.1760,-80.6330,1.5,30.36,11111222 
ENP,ioos.station.NOAA.NDBC:LMDF1:1,2019-10-02T11:00:00Z,25.1760,-80.6330,1.5,30.03,11111222 
ENP,ioos.station.NOAA.NDBC:LMDF1:1,2019-10-02T12:00:00Z,25.1760,-80.6330,1.5,30.46,11111222 
ENP,ioos.station.NOAA.NDBC:LMDF1:1,2019-10-02T13:00:00Z,25.1760,-80.6330,1.5,30.45,11111222 
ENP,ioos.station.NOAA.NDBC:LMDF1:1,2019-10-02T14:00:00Z,25.1760,-80.6330,1.5,30.46,11111222 
ENP,ioos.station.NOAA.NDBC:LMDF1:1,2019-10-02T15:00:00Z,25.1760,-80.6330,1.5,30.74,11111222 
ENP,ioos.station.NOAA.NDBC:LMDF1:1,2019-10-02T17:00:00Z,25.1760,-80.6330,1.5,29.98,11111222 
ENP,ioos.station.NOAA.NDBC:LMDF1:1,2019-10-02T18:00:00Z,25.1760,-80.6330,1.5,30.54,11111222 
ENP,ioos.station.NOAA.NDBC:LMDF1:1,2019-10-02T19:00:00Z,25.1760,-80.6330,1.5,30.41,11111222 
ENP,ioos.station.NOAA.NDBC:LMDF1:1,2019-10-02T20:00:00Z,25.1760,-80.6330,1.5,30.54,11111222 
ENP,ioos.station.NOAA.NDBC:LMDF1:1,2019-10-02T21:00:00Z,25.1760,-80.6330,1.5,30.71,11111222 
ENP,ioos.station.NOAA.NDBC:LMDF1:1,2019-10-02T22:00:00Z,25.1760,-80.6330,1.5,30.37,11111222 
ENP,ioos.station.NOAA.NDBC:LMDF1:1,2019-10-02T23:00:00Z,25.1760,-80.6330,1.5,30.14,11111222 
ENP,ioos.station.NOAA.NDBC:LMDF1:1,2019-10-03T04:00:00Z,25.1760,-80.6330,1.5,28.24,11111222 
ENP,ioos.station.NOAA.NDBC:LMDF1:1,2019-10-03T05:00:00Z,25.1760,-80.6330,1.5,29.05,11111222 
ENP,ioos.station.NOAA.NDBC:LMDF1:1,2019-10-03T17:00:00Z,25.1760,-80.6330,1.5,29.46,11111222 
ENP,ioos.station.NOAA.NDBC:LMDF1:1,2019-10-03T18:00:00Z,25.1760,-80.6330,1.5,29.03,11111222 
ENP,ioos.station.NOAA.NDBC:LMDF1:1,2019-10-03T19:00:00Z,25.1760,-80.6330,1.5,29.21,11111222 
ENP,ioos.station.NOAA.NDBC:LMDF1:1,2019-10-03T20:00:00Z,25.1760,-80.6330,1.5,28.6,11111222 
ENP,ioos.station.NOAA.NDBC:LMDF1:1,2019-10-03T21:00:00Z,25.1760,-80.6330,1.5,29.0,11111222 
ENP,ioos.station.NOAA.NDBC:LMDF1:1,2019-10-03T22:00:00Z,25.1760,-80.6330,1.5,29.22,11111222 
ENP,ioos.station.NOAA.NDBC:LMDF1:1,2019-10-03T23:00:00Z,25.1760,-80.6330,1.5,27.66,11111222 
ENP,ioos.station.NOAA.NDBC:LMDF1:1,2019-10-04T00:00:00Z,25.1760,-80.6330,1.5,28.99,11111222 
ENP,ioos.station.NOAA.NDBC:LMDF1:1,2019-10-04T02:00:00Z,25.1760,-80.6330,1.5,27.22,11111222 
ENP,ioos.station.NOAA.NDBC:LMDF1:1,2019-10-04T04:00:00Z,25.1760,-80.6330,1.5,28.67,11111222 
ENP,ioos.station.NOAA.NDBC:LMDF1:1,2019-10-04T05:00:00Z,25.1760,-80.6330,1.5,29.33,11111222 
ENP,ioos.station.NOAA.NDBC:LMDF1:1,2019-10-04T06:00:00Z,25.1760,-80.6330,1.5,29.57,11111222 
ENP,ioos.station.NOAA.NDBC:LMDF1:1,2019-10-04T07:00:00Z,25.1760,-80.6330,1.5,29.4,11111222 
ENP,ioos.station.NOAA.NDBC:LMDF1:1,2019-10-04T08:00:00Z,25.1760,-80.6330,1.5,29.23,11111222 
ENP,ioos.station.NOAA.NDBC:LMDF1:1,2019-10-04T09:00:00Z,25.1760,-80.6330,1.5,29.0,11111222 
ENP,ioos.station.NOAA.NDBC:LMDF1:1,2019-10-04T10:00:00Z,25.1760,-80.6330,1.5,29.05,11111222 
ENP,ioos.station.NOAA.NDBC:LMDF1:1,2019-10-04T11:00:00Z,25.1760,-80.6330,1.5,29.12,11111222 
ENP,ioos.station.NOAA.NDBC:LMDF1:1,2019-10-04T12:00:00Z,25.1760,-80.6330,1.5,29.2,11111222 
ENP,ioos.station.NOAA.NDBC:LMDF1:1,2019-10-04T13:00:00Z,25.1760,-80.6330,1.5,29.16,11111222 
ENP,ioos.station.NOAA.NDBC:LMDF1:1,2019-10-04T14:00:00Z,25.1760,-80.6330,1.5,29.37,11111222 
ENP,ioos.station.NOAA.NDBC:LMDF1:1,2019-10-04T15:00:00Z,25.1760,-80.6330,1.5,29.33,11111222 
ENP,ioos.station.NOAA.NDBC:LMDF1:1,2019-10-04T16:00:00Z,25.1760,-80.6330,1.5,28.33,11111222 
ENP,ioos.station.NOAA.NDBC:LMDF1:1,2019-10-04T17:00:00Z,25.1760,-80.6330,1.5,29.08,11111222 
ENP,ioos.station.NOAA.NDBC:LMDF1:1,2019-10-04T18:00:00Z,25.1760,-80.6330,1.5,27.89,11111222 
ENP,ioos.station.NOAA.NDBC:LMDF1:1,2019-10-04T19:00:00Z,25.1760,-80.6330,1.5,28.85,11111222 
ENP,ioos.station.NOAA.NDBC:LMDF1:1,2019-10-04T20:00:00Z,25.1760,-80.6330,1.5,29.12,11111222 
ENP,ioos.station.NOAA.NDBC:LMDF1:1,2019-10-04T22:00:00Z,25.1760,-80.6330,1.5,29.44,11111222 
ENP,ioos.station.NOAA.NDBC:LMDF1:1,2019-10-04T23:00:00Z,25.1760,-80.6330,1.5,29.35,11111222 
ENP,ioos.station.NOAA.NDBC:LMDF1:1,2019-10-05T00:00:00Z,25.1760,-80.6330,1.5,27.29,11111222 
ENP,ioos.station.NOAA.NDBC:LMDF1:1,2019-10-05T02:00:00Z,25.1760,-80.6330,1.5,29.77,11111222 
ENP,ioos.station.NOAA.NDBC:LMDF1:1,2019-10-05T04:00:00Z,25.1760,-80.6330,1.5,29.55,11111222 
ENP,ioos.station.NOAA.NDBC:LMDF1:1,2019-10-05T06:00:00Z,25.1760,-80.6330,1.5,29.0,11111222 
ENP,ioos.station.NOAA.NDBC:LMDF1:1,2019-10-05T07:00:00Z,25.1760,-80.6330,1.5,29.11,11111222 
ENP,ioos.station.NOAA.NDBC:LMDF1:1,2019-10-05T08:00:00Z,25.1760,-80.6330,1.5,29.38,11111222 
ENP,ioos.station.NOAA.NDBC:LMDF1:1,2019-10-05T09:00:00Z,25.1760,-80.6330,1.5,29.23,11111222 
ENP,ioos.station.NOAA.NDBC:LMDF1:1,2019-10-05T10:00:00Z,25.1760,-80.6330,1.5,29.25,11111222 
ENP,ioos.station.NOAA.NDBC:LMDF1:1,2019-10-05T11:00:00Z,25.1760,-80.6330,1.5,29.28,11111222 
ENP,ioos.station.NOAA.NDBC:LMDF1:1,2019-10-05T12:00:00Z,25.1760,-80.6330,1.5,29.62,11111222 
ENP,ioos.station.NOAA.NDBC:LMDF1:1,2019-10-05T13:00:00Z,25.1760,-80.6330,1.5,30.13,11111222 
ENP,ioos.station.NOAA.NDBC:LMDF1:1,2019-10-05T14:00:00Z,25.1760,-80.6330,1.5,30.25,11111222 
ENP,ioos.station.NOAA.NDBC:LMDF1:1,2019-10-05T15:00:00Z,25.1760,-80.6330,1.5,30.08,11111222 
ENP,ioos.station.NOAA.NDBC:LMDF1:1,2019-10-05T16:00:00Z,25.1760,-80.6330,1.5,28.47,11111222 
ENP,ioos.station.NOAA.NDBC:LMDF1:1,2019-10-05T17:00:00Z,25.1760,-80.6330,1.5,28.65,11111222 
ENP,ioos.station.NOAA.NDBC:LMDF1:1,2019-10-05T18:00:00Z,25.1760,-80.6330,1.5,27.86,11111222 
ENP,ioos.station.NOAA.NDBC:LMDF1:1,2019-10-05T19:00:00Z,25.1760,-80.6330,1.5,27.97,11111222 
ENP,ioos.station.NOAA.NDBC:LMDF1:1,2019-10-05T20:00:00Z,25.1760,-80.6330,1.5,28.81,11111222 
ENP,ioos.station.NOAA.NDBC:LMDF1:1,2019-10-05T21:00:00Z,25.1760,-80.6330,1.5,28.7,11111222 
ENP,ioos.station.NOAA.NDBC:LMDF1:1,2019-10-05T22:00:00Z,25.1760,-80.6330,1.5,28.23,11111222 
ENP,ioos.station.NOAA.NDBC:LMDF1:1,2019-10-05T23:00:00Z,25.1760,-80.6330,1.5,28.3,11111222 
ENP,ioos.station.NOAA.NDBC:LMDF1:1,2019-10-06T00:00:00Z,25.1760,-80.6330,1.5,28.37,11111222 
ENP,ioos.station.NOAA.NDBC:LMDF1:1,2019-10-06T01:00:00Z,25.1760,-80.6330,1.5,26.95,11111222 
ENP,ioos.station.NOAA.NDBC:LMDF1:1,2019-10-06T02:00:00Z,25.1760,-80.6330,1.5,28.83,11111222 
ENP,ioos.station.NOAA.NDBC:LMDF1:1,2019-10-06T04:00:00Z,25.1760,-80.6330,1.5,28.34,11111222 
ENP,ioos.station.NOAA.NDBC:LMDF1:1,2019-10-06T06:00:00Z,25.1760,-80.6330,1.5,26.3,11111222 
ENP,ioos.station.NOAA.NDBC:LMDF1:1,2019-10-06T07:00:00Z,25.1760,-80.6330,1.5,27.84,11111222 
ENP,ioos.station.NOAA.NDBC:LMDF1:1,2019-10-06T08:00:00Z,25.1760,-80.6330,1.5,27.72,11111222 
ENP,ioos.station.NOAA.NDBC:LMDF1:1,2019-10-06T09:00:00Z,25.1760,-80.6330,1.5,28.32,11111222 
ENP,ioos.station.NOAA.NDBC:LMDF1:1,2019-10-06T10:00:00Z,25.1760,-80.6330,1.5,28.68,11111222 
ENP,ioos.station.NOAA.NDBC:LMDF1:1,2019-10-06T11:00:00Z,25.1760,-80.6330,1.5,28.09,11111222 
ENP,ioos.station.NOAA.NDBC:LMDF1:1,2019-10-06T12:00:00Z,25.1760,-80.6330,1.5,28.18,11111222 
ENP,ioos.station.NOAA.NDBC:LMDF1:1,2019-10-06T13:00:00Z,25.1760,-80.6330,1.5,28.15,11111222 
ENP,ioos.station.NOAA.NDBC:LMDF1:1,2019-10-06T14:00:00Z,25.1760,-80.6330,1.5,28.13,11111222 
ENP,ioos.station.NOAA.NDBC:LMDF1:1,2019-10-06T15:00:00Z,25.1760,-80.6330,1.5,27.67,11111222 
ENP,ioos.station.NOAA.NDBC:LMDF1:1,2019-10-06T16:00:00Z,25.1760,-80.6330,1.5,27.52,11111222 
ENP,ioos.station.NOAA.NDBC:LMDF1:1,2019-10-06T17:00:00Z,25.1760,-80.6330,1.5,26.28,11111222 
ENP,ioos.station.NOAA.NDBC:LMDF1:1,2019-10-06T18:00:00Z,25.1760,-80.6330,1.5,26.36,11111222 
ENP,ioos.station.NOAA.NDBC:LMDF1:1,2019-10-06T19:00:00Z,25.1760,-80.6330,1.5,26.7,11111222 
ENP,ioos.station.NOAA.NDBC:LMDF1:1,2019-10-06T20:00:00Z,25.1760,-80.6330,1.5,28.23,11111222 
ENP,ioos.station.NOAA.NDBC:LMDF1:1,2019-10-06T21:00:00Z,25.1760,-80.6330,1.5,28.75,11111222 
ENP,ioos.station.NOAA.NDBC:LMDF1:1,2019-10-06T22:00:00Z,25.1760,-80.6330,1.5,28.78,11111222 
ENP,ioos.station.NOAA.NDBC:LMDF1:1,2019-10-06T23:00:00Z,25.1760,-80.6330,1.5,28.95,11111222 
ENP,ioos.station.NOAA.NDBC:LMDF1:1,2019-10-07T00:00:00Z,25.1760,-80.6330,1.5,29.08,11111222 
ENP,ioos.station.NOAA.NDBC:LMDF1:1,2019-10-07T01:00:00Z,25.1760,-80.6330,1.5,28.86,11111222 
ENP,ioos.station.NOAA.NDBC:LMDF1:1,2019-10-07T02:00:00Z,25.1760,-80.6330,1.5,26.19,11111222 
ENP,ioos.station.NOAA.NDBC:LMDF1:1,2019-10-07T04:00:00Z,25.1760,-80.6330,1.5,29.36,11111222 
ENP,ioos.station.NOAA.NDBC:LMDF1:1,2019-10-07T06:00:00Z,25.1760,-80.6330,1.5,30.29,11111222 
ENP,ioos.station.NOAA.NDBC:LMDF1:1,2019-10-07T07:00:00Z,25.1760,-80.6330,1.5,30.5,11111222 
ENP,ioos.station.NOAA.NDBC:LMDF1:1,2019-10-07T08:00:00Z,25.1760,-80.6330,1.5,30.52,11111222 
ENP,ioos.station.NOAA.NDBC:LMDF1:1,2019-10-07T09:00:00Z,25.1760,-80.6330,1.5,29.62,11111222 
ENP,ioos.station.NOAA.NDBC:LMDF1:1,2019-10-07T10:00:00Z,25.1760,-80.6330,1.5,29.7,11111222 
ENP,ioos.station.NOAA.NDBC:LMDF1:1,2019-10-07T11:00:00Z,25.1760,-80.6330,1.5,29.28,11111222 
ENP,ioos.station.NOAA.NDBC:LMDF1:1,2019-10-07T12:00:00Z,25.1760,-80.6330,1.5,29.31,11111222 
ENP,ioos.station.NOAA.NDBC:LMDF1:1,2019-10-07T14:00:00Z,25.1760,-80.6330,1.5,29.36,11111222 
ENP,ioos.station.NOAA.NDBC:LMDF1:1,2019-10-07T15:00:00Z,25.1760,-80.6330,1.5,29.31,11111222 
ENP,ioos.station.NOAA.NDBC:LMDF1:1,2019-10-07T16:00:00Z,25.1760,-80.6330,1.5,29.3,11111222 
ENP,ioos.station.NOAA.NDBC:LMDF1:1,2019-10-07T17:00:00Z,25.1760,-80.6330,1.5,29.16,11111222 
ENP,ioos.station.NOAA.NDBC:LMDF1:1,2019-10-07T18:00:00Z,25.1760,-80.6330,1.5,29.08,11111222 
ENP,ioos.station.NOAA.NDBC:LMDF1:1,2019-10-07T19:00:00Z,25.1760,-80.6330,1.5,28.88,11111222 
ENP,ioos.station.NOAA.NDBC:LMDF1:1,2019-10-07T20:00:00Z,25.1760,-80.6330,1.5,29.23,11111222 
ENP,ioos.station.NOAA.NDBC:LMDF1:1,2019-10-07T21:00:00Z,25.1760,-80.6330,1.5,29.01,11111222 
ENP,ioos.station.NOAA.NDBC:LMDF1:1,2019-10-07T23:00:00Z,25.1760,-80.6330,1.5,29.13,11111222 
ENP,ioos.station.NOAA.NDBC:LMDF1:1,2019-10-08T01:00:00Z,25.1760,-80.6330,1.5,28.88,11111222 
ENP,ioos.station.NOAA.NDBC:LMDF1:1,2019-10-08T04:00:00Z,25.1760,-80.6330,1.5,28.98,11111222 
ENP,ioos.station.NOAA.NDBC:LMDF1:1,2019-10-08T06:00:00Z,25.1760,-80.6330,1.5,29.03,11111222 
ENP,ioos.station.NOAA.NDBC:LMDF1:1,2019-10-08T07:00:00Z,25.1760,-80.6330,1.5,29.51,11111222 
ENP,ioos.station.NOAA.NDBC:LMDF1:1,2019-10-08T08:00:00Z,25.1760,-80.6330,1.5,29.36,11111222 
ENP,ioos.station.NOAA.NDBC:LMDF1:1,2019-10-08T09:00:00Z,25.1760,-80.6330,1.5,29.62,11111222 
ENP,ioos.station.NOAA.NDBC:LMDF1:1,2019-10-08T10:00:00Z,25.1760,-80.6330,1.5,29.96,11111222 
ENP,ioos.station.NOAA.NDBC:LMDF1:1,2019-10-08T11:00:00Z,25.1760,-80.6330,1.5,30.13,11111222 
ENP,ioos.station.NOAA.NDBC:LMDF1:1,2019-10-08T12:00:00Z,25.1760,-80.6330,1.5,30.32,11111222 
ENP,ioos.station.NOAA.NDBC:LMDF1:1,2019-10-08T14:00:00Z,25.1760,-80.6330,1.5,30.29,11111222 
ENP,ioos.station.NOAA.NDBC:LMDF1:1,2019-10-08T15:00:00Z,25.1760,-80.6330,1.5,30.19,11111222 
ENP,ioos.station.NOAA.NDBC:LMDF1:1,2019-10-08T16:00:00Z,25.1760,-80.6330,1.5,29.9,11111222 
ENP,ioos.station.NOAA.NDBC:LMDF1:1,2019-10-08T17:00:00Z,25.1760,-80.6330,1.5,30.26,11111222 
ENP,ioos.station.NOAA.NDBC:LMDF1:1,2019-10-08T18:00:00Z,25.1760,-80.6330,1.5,29.95,11111222 
ENP,ioos.station.NOAA.NDBC:LMDF1:1,2019-10-08T19:00:00Z,25.1760,-80.6330,1.5,29.7,11111222 
ENP,ioos.station.NOAA.NDBC:LMDF1:1,2019-10-08T20:00:00Z,25.1760,-80.6330,1.5,29.53,11111222 
ENP,ioos.station.NOAA.NDBC:LMDF1:1,2019-10-08T21:00:00Z,25.1760,-80.6330,1.5,29.32,11111222 
ENP,ioos.station.NOAA.NDBC:LMDF1:1,2019-10-08T22:00:00Z,25.1760,-80.6330,1.5,29.57,11111222 
ENP,ioos.station.NOAA.NDBC:LMDF1:1,2019-10-08T23:00:00Z,25.1760,-80.6330,1.5,29.51,11111222 
ENP,ioos.station.NOAA.NDBC:LMDF1:1,2019-10-09T00:00:00Z,25.1760,-80.6330,1.5,29.87,11111222 
ENP,ioos.station.NOAA.NDBC:LMDF1:1,2019-10-09T02:00:00Z,25.1760,-80.6330,1.5,30.49,11111222 
ENP,ioos.station.NOAA.NDBC:LMDF1:1,2019-10-09T04:00:00Z,25.1760,-80.6330,1.5,30.71,11111222 
ENP,ioos.station.NOAA.NDBC:LMDF1:1,2019-10-09T05:00:00Z,25.1760,-80.6330,1.5,30.73,11111222 
ENP,ioos.station.NOAA.NDBC:LMDF1:1,2019-10-09T06:00:00Z,25.1760,-80.6330,1.5,30.42,11111222 
ENP,ioos.station.NOAA.NDBC:LMDF1:1,2019-10-09T07:00:00Z,25.1760,-80.6330,1.5,30.55,11111222 
ENP,ioos.station.NOAA.NDBC:LMDF1:1,2019-10-09T08:00:00Z,25.1760,-80.6330,1.5,30.51,11111222 
ENP,ioos.station.NOAA.NDBC:LMDF1:1,2019-10-09T09:00:00Z,25.1760,-80.6330,1.5,30.76,11111222 
ENP,ioos.station.NOAA.NDBC:LMDF1:1,2019-10-09T10:00:00Z,25.1760,-80.6330,1.5,30.55,11111222 
ENP,ioos.station.NOAA.NDBC:LMDF1:1,2019-10-09T11:00:00Z,25.1760,-80.6330,1.5,30.32,11111222 
ENP,ioos.station.NOAA.NDBC:LMDF1:1,2019-10-09T13:00:00Z,25.1760,-80.6330,1.5,31.17,11111222 
ENP,ioos.station.NOAA.NDBC:LMDF1:1,2019-10-09T14:00:00Z,25.1760,-80.6330,1.5,31.55,11111222 
ENP,ioos.station.NOAA.NDBC:LMDF1:1,2019-10-09T15:00:00Z,25.1760,-80.6330,1.5,31.73,11111222 
ENP,ioos.station.NOAA.NDBC:LMDF1:1,2019-10-09T16:00:00Z,25.1760,-80.6330,1.5,31.63,11111222 
ENP,ioos.station.NOAA.NDBC:LMDF1:1,2019-10-09T17:00:00Z,25.1760,-80.6330,1.5,31.55,11111222 
ENP,ioos.station.NOAA.NDBC:LMDF1:1,2019-10-09T18:00:00Z,25.1760,-80.6330,1.5,31.47,11111222 
ENP,ioos.station.NOAA.NDBC:LMDF1:1,2019-10-09T19:00:00Z,25.1760,-80.6330,1.5,31.08,11111222 
ENP,ioos.station.NOAA.NDBC:LMDF1:1,2019-10-09T20:00:00Z,25.1760,-80.6330,1.5,30.6,11111222 
ENP,ioos.station.NOAA.NDBC:LMDF1:1,2019-10-09T21:00:00Z,25.1760,-80.6330,1.5,30.46,11111222 
ENP,ioos.station.NOAA.NDBC:LMDF1:1,2019-10-10T00:00:00Z,25.1760,-80.6330,1.5,30.74,11111222 
ENP,ioos.station.NOAA.NDBC:LMDF1:1,2019-10-10T02:00:00Z,25.1760,-80.6330,1.5,31.59,11111222 
ENP,ioos.station.NOAA.NDBC:LMDF1:1,2019-10-10T04:00:00Z,25.1760,-80.6330,1.5,32.24,11111222 
ENP,ioos.station.NOAA.NDBC:LMDF1:1,2019-10-10T05:00:00Z,25.1760,-80.6330,1.5,32.38,11111222 
ENP,ioos.station.NOAA.NDBC:LMDF1:1,2019-10-10T06:00:00Z,25.1760,-80.6330,1.5,32.33,11111222 
ENP,ioos.station.NOAA.NDBC:LMDF1:1,2019-10-10T07:00:00Z,25.1760,-80.6330,1.5,32.42,11111222 
ENP,ioos.station.NOAA.NDBC:LMDF1:1,2019-10-10T08:00:00Z,25.1760,-80.6330,1.5,32.49,11111222 
ENP,ioos.station.NOAA.NDBC:LMDF1:1,2019-10-10T09:00:00Z,25.1760,-80.6330,1.5,31.92,11111222 
ENP,ioos.station.NOAA.NDBC:LMDF1:1,2019-10-10T10:00:00Z,25.1760,-80.6330,1.5,32.39,11111222 
ENP,ioos.station.NOAA.NDBC:LMDF1:1,2019-10-10T11:00:00Z,25.1760,-80.6330,1.5,32.58,11111222 
ENP,ioos.station.NOAA.NDBC:LMDF1:1,2019-10-10T12:00:00Z,25.1760,-80.6330,1.5,32.74,11111222 
ENP,ioos.station.NOAA.NDBC:LMDF1:1,2019-10-10T13:00:00Z,25.1760,-80.6330,1.5,33.01,11111222 
ENP,ioos.station.NOAA.NDBC:LMDF1:1,2019-10-10T15:00:00Z,25.1760,-80.6330,1.5,33.09,11111222 
ENP,ioos.station.NOAA.NDBC:LMDF1:1,2019-10-10T16:00:00Z,25.1760,-80.6330,1.5,33.24,11111222 
ENP,ioos.station.NOAA.NDBC:LMDF1:1,2019-10-10T17:00:00Z,25.1760,-80.6330,1.5,33.35,11111222 
ENP,ioos.station.NOAA.NDBC:LMDF1:1,2019-10-10T18:00:00Z,25.1760,-80.6330,1.5,33.34,11111222 
ENP,ioos.station.NOAA.NDBC:LMDF1:1,2019-10-10T19:00:00Z,25.1760,-80.6330,1.5,33.56,11111222 
ENP,ioos.station.NOAA.NDBC:LMDF1:1,2019-10-10T20:00:00Z,25.1760,-80.6330,1.5,33.78,11111222 
ENP,ioos.station.NOAA.NDBC:LMDF1:1,2019-10-10T21:00:00Z,25.1760,-80.6330,1.5,34.04,11111222 
ENP,ioos.station.NOAA.NDBC:LMDF1:1,2019-10-10T22:00:00Z,25.1760,-80.6330,1.5,30.62,11111222 
ENP,ioos.station.NOAA.NDBC:LMDF1:1,2019-10-10T23:00:00Z,25.1760,-80.6330,1.5,31.34,11111222 
ENP,ioos.station.NOAA.NDBC:LMDF1:1,2019-10-11T00:00:00Z,25.1760,-80.6330,1.5,32.33,11111222 
ENP,ioos.station.NOAA.NDBC:LMDF1:1,2019-10-11T01:00:00Z,25.1760,-80.6330,1.5,32.44,11111222 
ENP,ioos.station.NOAA.NDBC:LMDF1:1,2019-10-11T02:00:00Z,25.1760,-80.6330,1.5,32.41,11111222 
ENP,ioos.station.NOAA.NDBC:LMDF1:1,2019-10-11T04:00:00Z,25.1760,-80.6330,1.5,32.81,11111222 
ENP,ioos.station.NOAA.NDBC:LMDF1:1,2019-10-11T05:00:00Z,25.1760,-80.6330,1.5,32.87,11111222 
ENP,ioos.station.NOAA.NDBC:LMDF1:1,2019-10-11T06:00:00Z,25.1760,-80.6330,1.5,32.95,11111222 
ENP,ioos.station.NOAA.NDBC:LMDF1:1,2019-10-11T07:00:00Z,25.1760,-80.6330,1.5,32.91,11111222 
ENP,ioos.station.NOAA.NDBC:LMDF1:1,2019-10-11T08:00:00Z,25.1760,-80.6330,1.5,32.87,11111222 
ENP,ioos.station.NOAA.NDBC:LMDF1:1,2019-10-11T09:00:00Z,25.1760,-80.6330,1.5,32.87,11111222 
ENP,ioos.station.NOAA.NDBC:LMDF1:1,2019-10-11T10:00:00Z,25.1760,-80.6330,1.5,32.87,11111222 
ENP,ioos.station.NOAA.NDBC:LMDF1:1,2019-10-11T11:00:00Z,25.1760,-80.6330,1.5,32.99,11111222 
ENP,ioos.station.NOAA.NDBC:LMDF1:1,2019-10-11T12:00:00Z,25.1760,-80.6330,1.5,32.97,11111222 
ENP,ioos.station.NOAA.NDBC:LMDF1:1,2019-10-11T13:00:00Z,25.1760,-80.6330,1.5,32.96,11111222 
ENP,ioos.station.NOAA.NDBC:LMDF1:1,2019-10-11T14:00:00Z,25.1760,-80.6330,1.5,32.82,11111222 
ENP,ioos.station.NOAA.NDBC:LMDF1:1,2019-10-11T15:00:00Z,25.1760,-80.6330,1.5,32.0,11111222 
ENP,ioos.station.NOAA.NDBC:LMDF1:1,2019-10-11T16:00:00Z,25.1760,-80.6330,1.5,32.63,11111222 
ENP,ioos.station.NOAA.NDBC:LMDF1:1,2019-10-11T17:00:00Z,25.1760,-80.6330,1.5,31.82,11111222 
ENP,ioos.station.NOAA.NDBC:LMDF1:1,2019-10-11T18:00:00Z,25.1760,-80.6330,1.5,31.82,11111222 
ENP,ioos.station.NOAA.NDBC:LMDF1:1,2019-10-11T19:00:00Z,25.1760,-80.6330,1.5,32.76,11111222 
ENP,ioos.station.NOAA.NDBC:LMDF1:1,2019-10-11T20:00:00Z,25.1760,-80.6330,1.5,32.16,11111222 
ENP,ioos.station.NOAA.NDBC:LMDF1:1,2019-10-11T21:00:00Z,25.1760,-80.6330,1.5,32.42,11111222 
ENP,ioos.station.NOAA.NDBC:LMDF1:1,2019-10-11T22:00:00Z,25.1760,-80.6330,1.5,30.03,11111222 
ENP,ioos.station.NOAA.NDBC:LMDF1:1,2019-10-11T23:00:00Z,25.1760,-80.6330,1.5,32.51,11111222 
ENP,ioos.station.NOAA.NDBC:LMDF1:1,2019-10-12T00:00:00Z,25.1760,-80.6330,1.5,32.17,11111222 
ENP,ioos.station.NOAA.NDBC:LMDF1:1,2019-10-12T01:00:00Z,25.1760,-80.6330,1.5,32.06,11111222 
ENP,ioos.station.NOAA.NDBC:LMDF1:1,2019-10-12T02:00:00Z,25.1760,-80.6330,1.5,32.15,11111222 
ENP,ioos.station.NOAA.NDBC:LMDF1:1,2019-10-12T04:00:00Z,25.1760,-80.6330,1.5,31.73,11111222 
ENP,ioos.station.NOAA.NDBC:LMDF1:1,2019-10-12T05:00:00Z,25.1760,-80.6330,1.5,31.05,11111222 
ENP,ioos.station.NOAA.NDBC:LMDF1:1,2019-10-12T06:00:00Z,25.1760,-80.6330,1.5,31.84,11111222 
ENP,ioos.station.NOAA.NDBC:LMDF1:1,2019-10-12T07:00:00Z,25.1760,-80.6330,1.5,28.14,11111222 
ENP,ioos.station.NOAA.NDBC:LMDF1:1,2019-10-12T08:00:00Z,25.1760,-80.6330,1.5,31.77,11111222 
ENP,ioos.station.NOAA.NDBC:LMDF1:1,2019-10-12T09:00:00Z,25.1760,-80.6330,1.5,31.71,11111222 
ENP,ioos.station.NOAA.NDBC:LMDF1:1,2019-10-12T10:00:00Z,25.1760,-80.6330,1.5,31.66,11111222 
ENP,ioos.station.NOAA.NDBC:LMDF1:1,2019-10-12T11:00:00Z,25.1760,-80.6330,1.5,31.01,11111222 
ENP,ioos.station.NOAA.NDBC:LMDF1:1,2019-10-12T12:00:00Z,25.1760,-80.6330,1.5,29.19,11111222 
ENP,ioos.station.NOAA.NDBC:LMDF1:1,2019-10-12T13:00:00Z,25.1760,-80.6330,1.5,31.08,11111222 
ENP,ioos.station.NOAA.NDBC:LMDF1:1,2019-10-12T14:00:00Z,25.1760,-80.6330,1.5,31.06,11111222 
ENP,ioos.station.NOAA.NDBC:LMDF1:1,2019-10-12T15:00:00Z,25.1760,-80.6330,1.5,30.82,11111222 
ENP,ioos.station.NOAA.NDBC:LMDF1:1,2019-10-12T16:00:00Z,25.1760,-80.6330,1.5,30.06,11111222 
ENP,ioos.station.NOAA.NDBC:LMDF1:1,2019-10-12T17:00:00Z,25.1760,-80.6330,1.5,30.11,11111222 
ENP,ioos.station.NOAA.NDBC:LMDF1:1,2019-10-12T18:00:00Z,25.1760,-80.6330,1.5,28.54,11111222 
ENP,ioos.station.NOAA.NDBC:LMDF1:1,2019-10-12T19:00:00Z,25.1760,-80.6330,1.5,29.63,11111222 
ENP,ioos.station.NOAA.NDBC:LMDF1:1,2019-10-12T20:00:00Z,25.1760,-80.6330,1.5,26.54,11111222 
ENP,ioos.station.NOAA.NDBC:LMDF1:1,2019-10-12T21:00:00Z,25.1760,-80.6330,1.5,27.61,11111222 
ENP,ioos.station.NOAA.NDBC:LMDF1:1,2019-10-12T22:00:00Z,25.1760,-80.6330,1.5,26.58,11111222 
ENP,ioos.station.NOAA.NDBC:LMDF1:1,2019-10-12T23:00:00Z,25.1760,-80.6330,1.5,26.8,11111222 
ENP,ioos.station.NOAA.NDBC:LMDF1:1,2019-10-13T00:00:00Z,25.1760,-80.6330,1.5,28.65,11111222 
ENP,ioos.station.NOAA.NDBC:LMDF1:1,2019-10-13T01:00:00Z,25.1760,-80.6330,1.5,28.76,11111222 
ENP,ioos.station.NOAA.NDBC:LMDF1:1,2019-10-13T02:00:00Z,25.1760,-80.6330,1.5,28.37,11111222 
ENP,ioos.station.NOAA.NDBC:LMDF1:1,2019-10-13T04:00:00Z,25.1760,-80.6330,1.5,29.29,11111222 
ENP,ioos.station.NOAA.NDBC:LMDF1:1,2019-10-13T05:00:00Z,25.1760,-80.6330,1.5,28.94,11111222 
ENP,ioos.station.NOAA.NDBC:LMDF1:1,2019-10-13T06:00:00Z,25.1760,-80.6330,1.5,28.42,11111222 
ENP,ioos.station.NOAA.NDBC:LMDF1:1,2019-10-13T07:00:00Z,25.1760,-80.6330,1.5,28.68,11111222 
ENP,ioos.station.NOAA.NDBC:LMDF1:1,2019-10-13T08:00:00Z,25.1760,-80.6330,1.5,26.31,11111222 
ENP,ioos.station.NOAA.NDBC:LMDF1:1,2019-10-13T09:00:00Z,25.1760,-80.6330,1.5,28.27,11111222 
ENP,ioos.station.NOAA.NDBC:LMDF1:1,2019-10-13T10:00:00Z,25.1760,-80.6330,1.5,25.34,11111222 
ENP,ioos.station.NOAA.NDBC:LMDF1:1,2019-10-13T11:00:00Z,25.1760,-80.6330,1.5,26.68,11111222 
ENP,ioos.station.NOAA.NDBC:LMDF1:1,2019-10-13T12:00:00Z,25.1760,-80.6330,1.5,27.75,11111222 
ENP,ioos.station.NOAA.NDBC:LMDF1:1,2019-10-13T13:00:00Z,25.1760,-80.6330,1.5,27.7,11111222 
ENP,ioos.station.NOAA.NDBC:LMDF1:1,2019-10-13T14:00:00Z,25.1760,-80.6330,1.5,26.31,11111222 
ENP,ioos.station.NOAA.NDBC:LMDF1:1,2019-10-13T15:00:00Z,25.1760,-80.6330,1.5,26.06,11111222 
ENP,ioos.station.NOAA.NDBC:LMDF1:1,2019-10-13T16:00:00Z,25.1760,-80.6330,1.5,25.96,11111222 
ENP,ioos.station.NOAA.NDBC:LMDF1:1,2019-10-13T17:00:00Z,25.1760,-80.6330,1.5,26.61,11111222 